Flag for Finland Weather past 2 weeks in Helsinki, Finland

Now
61 °F

Broken clouds.


Feels Like: 61 °F
Forecast: 56 / 60 °F
Wind: 14 mph from South

Location: Helsinki Malmi Airport

Current Time: Jul 30, 2015 at 3:47:52 PM

Latest Report: Jul 30, 2015 at 3:20 PM


Visibility: N/A

Pressure: 29.47 "Hg

Humidity: 72%

Dew point: 52 °F

Location of HelsinkiLocation

Historic Weather in Helsinki — Graph

°F

Helsinki temperature yesterday

Maximum temperature yesterday: 68 °F (at 1:20 PM)
Minimum temperature yesterday: 45 °F (at 4:50 AM)
Average temperature yesterday: 60 °F

Past Weeks' High & Low Weather Summary

 TemperatureHumidityPressure
High72 °F (Jul 15, 3:50 PM)100% (Jul 17, 9:20 AM)29.92 "Hg (Jul 17, 9:20 AM)
Low45 °F (Jul 28, 5:20 AM)33% (Jul 15, 6:20 PM)29.47 "Hg (Jul 22, 9:50 AM)
Average60 °F78%29.69 "Hg
* Reported Jul 15 2:20 PM — Jul 30 2:20 PM, Helsinki, Weather by CustomWeather, © 2015

Note: Actual official high and low records may vary slightly from our data, if they occured in-between our weather recording intervals... More about our weather records

Advertising

Helsinki weather history for previous 24 hours

 ConditionsComfort  
Time TempWeatherWind HumidityBarometerVisibility
2:20 PM
Thu, Jul 30
61 °FBroken clouds.7 mph88%29.47 "HgN/A
1:50 PM59 °FRain showers. Broken clouds.9 mph88%29.47 "HgN/A
1:20 PM63 °FScattered showers. Partly sunny.12 mph73%29.47 "HgN/A
12:50 PM63 °FPartly sunny.12 mph73%29.47 "HgN/A
12:20 PM61 °FPartly sunny.10 mph77%29.47 "HgN/A
11:50 AM61 °FPartly sunny.12 mph77%29.47 "HgN/A
11:20 AM63 °FPartly sunny.12 mph73%29.47 "HgN/A
10:50 AM63 °FScattered clouds.9 mph77%29.47 "HgN/A
10:20 AM61 °FScattered clouds.10 mph83%29.47 "HgN/A
9:50 AM61 °FScattered clouds.12 mph83%29.47 "HgN/A
9:20 AM61 °FScattered clouds.12 mph83%29.47 "HgN/A
8:50 AM59 °FScattered clouds.12 mph88%29.47 "HgN/A
8:20 AM59 °FScattered clouds.10 mph88%29.47 "HgN/A
7:50 AM59 °FPartly sunny.10 mph88%29.50 "HgN/A
7:20 AM59 °FBroken clouds.8 mph88%29.50 "HgN/A
6:50 AM59 °FBroken clouds.7 mph94%29.50 "HgN/A
6:20 AM59 °FBroken clouds.7 mph94%29.50 "HgN/A
5:50 AM59 °FPassing clouds.7 mph94%29.50 "HgN/A
5:20 AM59 °FPartly cloudy.5 mph94%29.50 "HgN/A
4:50 AM59 °FSprinkles. Passing clouds.5 mph94%29.50 "HgN/A
4:20 AM59 °FSprinkles. Passing clouds.3 mph94%29.50 "HgN/A
3:50 AM59 °FSprinkles. Passing clouds.3 mph94%29.50 "HgN/A
3:20 AM59 °FPassing clouds.5 mph88%29.50 "HgN/A
2:50 AM61 °FSprinkles. Mostly cloudy.6 mph88%29.50 "HgN/A
2:20 AM61 °FClear.5 mph88%29.50 "Hg10 mi
1:50 AM61 °FPassing clouds.8 mph88%29.50 "HgN/A
1:20 AM61 °FPassing clouds.5 mph88%29.50 "HgN/A
12:50 AM61 °FClear.5 mph88%29.50 "Hg10 mi
12:20 AM61 °FClear.5 mph88%29.50 "Hg10 mi
11:50 PM
Wed, Jul 29
61 °FClear.2 mph88%29.50 "Hg10 mi
11:20 PM61 °FClear.3 mph88%29.50 "Hg10 mi
10:50 PM61 °FSunny.5 mph83%29.50 "Hg10 mi
10:20 PM61 °FSunny.5 mph88%29.50 "Hg10 mi
9:50 PM61 °FSunny.6 mph83%29.50 "Hg10 mi
9:20 PM63 °FSunny.7 mph77%29.50 "Hg10 mi
8:50 PM63 °FPassing clouds.5 mph77%29.50 "HgN/A
8:20 PM64 °FSunny.7 mph73%29.50 "Hg10 mi
7:50 PM64 °FPassing clouds.7 mph68%29.50 "HgN/A
7:20 PM66 °FPassing clouds.7 mph60%29.50 "HgN/A
6:50 PM66 °FPassing clouds.7 mph64%29.50 "HgN/A
6:20 PM66 °FPassing clouds.6 mph64%29.50 "HgN/A
5:50 PM66 °FPassing clouds.9 mph60%29.50 "HgN/A
5:20 PM68 °FPassing clouds.8 mph56%29.50 "HgN/A
4:50 PM64 °FSunny.8 mph68%29.50 "Hg10 mi
4:20 PM64 °FPartly sunny.7 mph64%29.50 "HgN/A
3:50 PM64 °FPartly sunny.8 mph64%29.50 "HgN/A
3:20 PM64 °FPartly sunny.8 mph60%29.50 "HgN/A
Weather by CustomWeather, © 2015

See weather overviewHow to use our weather pages